EDT,Max TemperatureF,Mean TemperatureF,Min TemperatureF,Max Dew PointF,MeanDew PointF,Min DewpointF,Max Humidity, Mean Humidity, Min Humidity, Max Sea Level PressureIn, Mean Sea Level PressureIn, Min Sea Level PressureIn, Max VisibilityMiles, Mean VisibilityMiles, Min VisibilityMiles, Max Wind SpeedMPH, Mean Wind SpeedMPH, Max Gust SpeedMPH,PrecipitationIn, CloudCover, Events, WindDirDegrees
2012-9-1,89,78,66,67,62,57,87,62,36,30.05,29.97,29.89,10,10,9,13,3,17,0.00,1,,15
2012-9-2,84,74,64,66,63,56,87,66,45,30.09,30.05,30.00,10,10,10,10,2,13,T,5,,108
2012-9-3,73,67,61,64,61,57,93,77,61,30.17,30.12,30.09,10,10,10,10,2,14,0.00,7,,107
2012-9-4,78,73,68,73,68,62,93,84,74,30.10,29.95,29.80,10,9,3,8,1,13,0.26,7,Rain,167
2012-9-5,84,75,65,73,70,64,94,76,58,29.83,29.77,29.74,10,8,1,14,3,21,0.42,6,Rain-Thunderstorm,216
2012-9-6,82,72,61,66,63,60,100,79,58,29.91,29.87,29.83,10,6,0,9,2,10,T,4,Fog-Rain,194
2012-9-7,86,76,66,71,68,66,84,68,51,29.93,29.88,29.84,10,10,10,7,3,,0.00,2,,150
2012-9-8,83,73,63,73,67,60,93,81,69,29.81,29.68,29.51,10,6,1,38,5,54,0.81,6,Rain-Thunderstorm,178
2012-9-9,77,68,58,61,58,54,100,73,46,29.89,29.82,29.75,10,6,0,13,2,20,0.22,4,Fog-Rain,17
2012-9-10,72,61,49,57,49,41,100,68,35,30.13,29.97,29.90,10,7,1,17,5,24,0.00,1,,352
2012-9-11,72,57,42,54,46,40,96,68,39,30.27,30.22,30.13,10,10,10,9,1,12,0.00,0,,190
2012-9-12,79,63,46,58,52,44,93,66,39,30.36,30.31,30.27,10,10,10,8,1,12,0.00,0,,165
2012-9-13,81,66,51,61,55,49,96,69,42,30.35,30.30,30.25,10,10,9,12,2,15,0.00,0,,202
2012-9-14,80,68,55,60,57,53,93,69,45,30.26,30.16,30.06,10,10,7,10,2,15,0.00,0,,171
2012-9-15,72,61,49,60,51,45,93,67,41,30.12,30.08,30.04,10,10,4,16,5,23,0.11,3,Rain,336
2012-9-16,73,59,45,51,47,43,93,63,33,30.12,30.07,30.01,10,10,10,12,2,20,0.00,1,,265
2012-9-17,77,62,46,55,50,44,93,68,43,30.11,30.05,30.00,10,10,10,10,2,13,0.00,0,,154
2012-9-18,76,68,59,68,64,54,93,86,79,30.00,29.76,29.58,10,6,0,30,8,44,2.35,8,Fog-Rain,165
2012-9-19,70,58,46,65,51,39,93,64,35,30.19,29.94,29.70,10,10,4,18,5,24,0.04,5,Rain,336
2012-9-20,68,55,42,55,48,39,96,76,55,30.23,30.16,30.10,10,10,10,10,2,15,0.00,2,,160
2012-9-21,72,62,51,57,53,49,96,77,57,30.11,30.06,29.99,10,10,10,9,2,14,0.00,4,,152
2012-9-22,73,62,51,64,57,50,96,82,68,29.99,29.86,29.76,10,8,2,20,4,24,0.33,7,Rain,153
2012-9-23,68,57,45,59,50,39,100,69,37,30.11,29.96,29.85,10,6,0,14,4,18,0.00,3,Fog,306
2012-9-24,66,55,43,48,42,36,93,64,34,30.16,30.11,30.07,10,10,10,16,3,20,0.00,3,,250
2012-9-25,73,56,39,52,44,37,93,62,31,30.16,30.12,30.08,10,10,10,16,4,21,T,1,,186
2012-9-26,68,63,58,62,58,54,97,85,73,30.11,30.04,30.00,10,9,2,9,2,12,0.05,7,Rain,180
2012-9-27,72,64,55,61,55,49,97,73,49,30.19,30.13,30.02,10,9,2,12,4,16,T,3,,13
2012-9-28,60,57,53,57,53,51,93,89,84,30.18,30.07,29.96,10,6,2,12,5,16,0.82,8,Rain,358
2012-9-29,64,60,55,56,53,52,93,80,67,29.95,29.91,29.86,10,9,4,9,3,12,0.10,8,Rain,353
2012-9-30,66,60,53,54,52,46,93,73,52,29.88,29.82,29.73,10,9,2,13,3,21,0.09,6,Rain,238